This demonstration page uses our WeatherBlox Daily Observations layout. Learn more.

41.55636, -103.73856

Hourly Observations for September 21, 2017

Temp ( °F °C ) Dew Point ( °F °C ) Humidity (%) Winds ( mph kmh ) Pressure ( in mb ) Visibility ( mi km ) Precip ( " mm )
12:53 am 00:53 Clear 58 14.4 35 1.7 42 42 ESE 15 24 29.68 1005 10 16.0934 0 0
1:53 am 01:53 Clear 57 13.9 36 2.2 45 45 E 13 20 29.67 1005 10 16.0934 0 0
2:53 am 02:53 Clear 54 12.2 36 2.2 51 51 E 12 19 29.65 1004 10 16.0934 0 0
3:53 am 03:53 Clear 53 11.7 36 2.2 52 52 E 14 22 29.65 1004 10 16.0934 0 0
4:53 am 04:53 Clear 51 10.6 37 2.8 59 59 E 13 20 29.63 1003 10 16.0934 0 0
5:53 am 05:53 Clear 48 8.9 38 3.3 68 68 ESE 10 17 29.64 1004 10 16.0934 0 0
6:53 am 06:53 Sunny 46 7.8 39 3.9 77 77 E 7 11 29.67 1005 10 16.0934 0 0
7:53 am 07:53 Sunny 51 10.6 41 5 69 69 E 12 19 29.67 1005 10 16.0934 0 0
8:53 am 08:53 Sunny 57 13.9 42 5.6 58 58 E 12 19 29.65 1004 10 16.0934 0 0
9:53 am 09:53 Sunny 62 16.7 43 6.1 50 50 E 10 17 29.65 1004 10 16.0934 0 0
10:53 am 10:53 Sunny 67 19.4 44 6.7 44 44 E 7 11 29.62 1003 10 16.0934 0 0
11:53 am 11:53 Sunny 74 23.3 44 6.7 34 34 ESE 8 13 29.59 1002 10 16.0934 0 0
12:53 pm 12:53 Sunny 80 26.7 45 7.2 29 29 E 10 17 29.57 1001 10 16.0934 0 0
1:53 pm 13:53 Sunny 84 28.9 46 7.8 27 27 ENE 13 20 29.53 1000 10 16.0934 0 0
2:53 pm 14:53 Sunny 87 30.6 43 6.1 21 21 ESE 17 28 29.52 1000 10 16.0934 0 0
3:53 pm 15:53 Sunny 88 31.1 39 3.9 18 18 E 20 31 29.5 999 10 16.0934 0 0
4:53 pm 16:53 Sunny 87 30.6 37 2.8 17 17 E 15 24 29.5 999 10 16.0934 0 0
5:53 pm 17:53 Sunny 83 28.3 38 3.3 20 20 E 10 17 29.51 999 10 16.0934 0 0
6:53 pm 18:53 Sunny 72 22.2 42 5.6 34 34 E 10 17 29.53 1000 10 16.0934 0 0
7:53 pm 19:53 Clear 68 20 42 5.6 39 39 E 9 15 29.53 1000 10 16.0934 0 0
8:53 pm 20:53 Clear 63 17.2 45 7.2 52 52 SE 3 6 29.53 1000 10 16.0934 0 0
9:53 pm 21:53 Clear 61 16.1 44 6.7 54 54 Calm 29.51 999 10 16.0934 0 0
10:53 pm 22:53 Clear 56 13.3 46 7.8 70 70 N 8 13 29.52 1000 10 16.0934 0 0
11:53 pm 23:53 Clear 62 16.7 40 4.4 44 44 NE 14 22 29.49 999 10 16.0934 0 0

Powered by AerisWeather